Regional Weather Roundup
Issued by NWS Upton, NY

Current Version | Previous Version | Graphics & Text | Print | Product List | Glossary Off
Versions: 1 2 3 4 5 6 7 8 9 10 11 12 13 14 15 16 17 18 19 20 21 22 23 24 25 26 27 28 29 30 31 32 33 34 35 36 37 38 39 40 41 42 43 44 45 46 47 48 49 50
401 ASUS41 KOKX 090504 RWROKX REGIONAL WEATHER ROUNDUP NATIONAL WEATHER SERVICE NEW YORK NY 1200 AM EST TUE FEB 09 2016 NOTE: "FAIR" INDICATES FEW OR NO CLOUDS BELOW 12,000 FEET WITH NO SIGNIFICANT WEATHER AND/OR OBSTRUCTIONS TO VISIBILITY. NYZ071-072-176-178-NJZ106-104-090600- NEW YORK CITY METRO AREA CITY SKY/WX TMP DP RH WIND PRES REMARKS CENTRAL PARK CLOUDY 28 22 78 VRB7 29.77F WCI 21 LAGUARDIA APRT FLURRIES 29 24 82 E12 29.76F WCI 19 KENNEDY INTL FLURRIES 28 24 85 NE9 29.78F WCI 19 NEWARK/LIBERTY FRZ DRZL 30 25 81 NE6 29.76F WCI 24 BRNX BOT. GARD N/A 28 25 86 NE7 29.76F WCI 21 TETERBORO FLURRIES 28 21 75 NE7 29.76F WCI 21 $$ NYZ177-179-078>081-090600- LONG ISLAND NEW YORK CITY SKY/WX TMP DP RH WIND PRES REMARKS FARMINGDALE CLOUDY 27 23 85 NE5 29.77F WCI 22 ISLIP FLURRIES 27 22 81 NE6 29.74F WCI 20 SHIRLEY CLOUDY 26 22 84 CALM 29.78F RIVERHEAD N/A 27 21 80 E1 29.75S WESTHAMPTON FLURRIES 25 21 85 NE6 29.79S WCI 18 EAST HAMPTON CLOUDY 24 19 80 N6 29.77F WCI 17 MONTAUK POINT N/A 25 19 78 N10 29.78F WCI 15 $$ NYZ052-065-067-090600- HUDSON VALLEY CITY SKY/WX TMP DP RH WIND PRES REMARKS WHITE PLAINS CLOUDY 25 19 78 NE8 29.74F WCI 16 NEWBURGH LGT SNOW 25 23 93 NE9 29.75F WCI 15 MONTGOMERY LGT SNOW 25 21 85 MISG 29.74F FOG POUGHKEEPSIE LGT SNOW 26 22 84 N5 29.76F FOG WCI 20 ALBANY LGT SNOW 25 21 85 CALM 29.77F FOG $$ NJZ001-105-106-008-010-013-015-019>022-104-090600- NEW JERSEY CITY SKY/WX TMP DP RH WIND PRES REMARKS NEWARK/LIBERTY FRZ DRZL 30 25 81 NE6 29.76F WCI 24 TETERBORO FLURRIES 28 21 75 NE7 29.76F WCI 21 CALDWELL CLOUDY 28 23 81 NE8 29.76F WCI 20 MORRISTOWN CLOUDY 28 23 80 NE6 29.76S WCI 22 SOMERVILLE CLOUDY 30 24 78 E3 29.73F SUSSEX LGT SNOW 27 22 81 NE6 29.72F WCI 20 ANDOVER N/A 28 22 78 VRB3 29.72S TRENTON LGT SNOW 30 26 85 E6 29.73F FOG WCI 24 MILLVILLE LGT SNOW 33 31 92 E7 29.71F FOG WCI 27 ATLANTIC CITY LGT SNOW 33 31 92 E6 29.72F FOG WCI 28 WRIGHTSTOWN FLURRIES 30 30 100 NE7 29.70F WCI 23 TOMS RIVER CLOUDY 32 27 80 NE5 29.73F WCI 27 BELMAR CLOUDY 30 21 69 NE7 29.73F WCI 23 $$ PAZ047>061-062-071-090600- EASTERN PENNSYLVANIA CITY SKY/WX TMP DP RH WIND PRES REMARKS PHILADELPHIA FLURRIES 32 28 85 E7 29.73F WCI 26 ALLENTOWN LGT SNOW 31 27 85 E6 29.71F FOG WCI 25 SCRANTON LGT SNOW 29 21 72 SE6 29.66S WCI 23 $$ CTZ002-004>006-009-010-012-RIZ004-006-007-MAZ004-011-015-090600- SOUTHERN NEW ENGLAND IN CT CITY SKY/WX TMP DP RH WIND PRES REMARKS BRADLEY INTL FLURRIES 23 19 85 N5 29.78F WCI 17 HARTFORD CLOUDY 24 18 77 N8 29.79F WCI 15 DANBURY FLURRIES 24 16 71 NE5 29.76F WCI 18 WTRBRY/OXFORD CLOUDY 21 10 63 NE7 29.74F WCI 13 BRIDGEPORT CLOUDY 26 19 74 NE9 29.78F WCI 17 MERIDEN CLOUDY 25 18 74 N3 29.78F NEW HAVEN CLOUDY 24 20 84 N7 29.78F WCI 16 CHESTER MOCLDY 23 19 86 N7 29.76S WCI 15 GROTON CLOUDY 23 17 78 N12 29.77F WCI 12 WILLIMANTIC CLOUDY 23 15 71 NE7 29.78F WCI 15 IN RI CITY SKY/WX TMP DP RH WIND PRES REMARKS PROVIDENCE CLOUDY 21 15 78 N15 29.77F WCI 8 BLOCK ISLAND CLOUDY 23 19 86 N15 29.74S WCI 10 WESTERLY CLOUDY 23 16 74 N7 29.77F WCI 15 IN MA CITY SKY/WX TMP DP RH WIND PRES REMARKS BOSTON LGT SNOW 21 16 81 N10 29.79F WCI 10 WORCESTER LGT SNOW 17 13 84 N8 29.71F VSB 1 WCI 7 WESTFIELD FLURRIES 22 19 89 N3 29.78F PROVINCETOWN LGT SNOW 28 26 92 N20G26 29.74S FOG WCI 15 NANTUCKET CLOUDY 32 27 81 N21 29.68F WCI 20 $$ ANZ330-335-338-340-345-350-353-355-090600- COASTAL MARINE OBSERVATIONS STATION/POSITION TIME SKY/WX TEMP WIND PRES VSBY WAVE AIR SEA DIR/SP/G HT/PER (UTC) (F) (DEG/KT/KT) (MB) (MI) (FT/S) NY HARB ENTRANCE 0350 30 43 60/ 10/ 14 1008.1 10/13 4S FIRE IS NOT AVBL 20S FIRE ISLAND 0350 30 45 50/ 8/ 10 1008.3 10/15 GREAT SOUTH BAY NOT AVBL 23SW MTP 0450 28 46 20/ 14/ 17 1007.4 10/13 HUDSON CANYON 0350 36 51 1007.5 17/11 KINGS POINT 0400 27 39 90/ 5/ 8 1008.0 EXECUTION ROCKS NOT AVBL CENTRAL LI SOUND 0430 26 30/ 10/ 14 N/A 1/ 2 EASTERN LI SOUND 0400 25 41 20/ 14/ 19 N/A ROBBINS REEF 0400 29 90/ 11/ 12 1007.2 $$ >>>>>>>>>>>>>>>>>>>>>>>>>>>> KEY <<<<<<<<<<<<<<<<<<<<<<<<<<< > < > SKY/WX - SKY CONDITION/PRESENT WEATHER < > TMP - TEMPERATURE IN FAHRENHEIT < > DP - DEWPOINT IN FAHRENHEIT < > RH - RELATIVE HUMIDITY IN PERCENT < > WIND - DIRECTION AND SPEED IN MPH < > PRES - MEAN SEA LEVEL PRESSURE IN INCHES OF HG < > WCI - WIND CHILL INDEX < > VSB - VISIBILITY IN MILES < > HX - HEAT INDEX < > TC - TEMPERATURE IN CELSIUS < > VRB - VARIABLE WIND DIRECTION < > < >>>>>>>>>>>>>>>>>>>>>>>>>>>> KEY <<<<<<<<<<<<<<<<<<<<<<<<<<<

USA.gov is the U.S. government's official web portal to all federal, state and local government web resources and services.